Temp_Advection
nan nan nan nan nan nan nan nan nan nan nan nan nan nan nan nan nan nan nan nan nan nan nan nan nan nan nan nan nan nan nan nan
nan -0 1 1 1 0 1 1 0 1 1 0 -0 -1 0 1 0 1 1 1 0 0 1 1 1 1 0 1 -0 0 0 nan
nan 0 0 1 1 0 1 -0 -0 0 -0 1 1 1 1 1 1 0 0 0 0 0 0 1 1 1 0 0 -0 0 0 nan
nan -0 0 0 1 0 0 0 1 0 2 4 4 1 -1 -1 -0 0 0 0 0 0 0 1 1 0 1 1 -0 -0 0 nan
nan 1 0 1 1 1 0 1 2 2 4 3 -1 -2 -1 -0 0 1 1 1 0 0 0 1 1 1 1 0 -0 0 0 nan
nan 1 0 1 1 1 0 1 1 2 1 -1 -1 -0 0 -0 0 1 1 1 1 1 1 0 1 1 1 0 0 0 0 nan
nan 0 1 1 1 1 0 0 0 1 0 0 -0 -1 -1 -1 1 2 2 1 1 1 0 0 0 1 1 1 1 0 0 nan
nan -0 0 0 1 1 0 -0 -0 -0 -0 0 0 -1 -1 1 2 2 -2 -2 1 1 2 1 0 1 1 1 1 0 -0 nan
nan -0 0 0 0 -0 -0 -1 -0 0 0 0 -1 -0 -0 -1 -0 -1 -1 -1 1 2 2 1 0 1 2 1 0 0 0 nan
nan -0 -0 0 0 -0 -1 -1 -1 -1 -1 -0 -0 -0 -1 -1 -0 -1 -1 0 1 2 2 1 1 2 1 0 1 0 0 nan
nan 0 1 0 0 0 0 0 -0 -0 -1 -1 -1 -1 -0 -0 -0 -0 0 0 1 1 2 1 1 1 1 0 1 0 -0 nan
nan 1 1 1 1 -0 -0 -0 -0 -0 -0 -1 -1 -1 0 1 1 -0 0 0 1 1 1 1 1 2 1 1 1 0 0 nan
nan 1 1 0 -0 -0 -0 -1 -1 -1 -1 -0 -0 -1 1 -0 -1 -0 0 0 1 1 1 1 1 1 1 1 0 0 0 nan
nan -0 0 0 0 -0 -0 -1 -1 -1 -1 -1 -0 -0 -0 -0 -0 -1 -0 0 0 1 1 1 1 1 1 1 0 0 0 nan
nan -1 -0 -0 0 -0 -1 -0 -0 -0 -1 -1 -1 -1 -0 -0 -0 -0 -1 -0 0 0 0 2 2 0 0 1 0 0 0 nan
nan -1 -0 0 -0 -1 -0 -0 -0 -0 0 -1 -1 -1 -1 -0 -0 0 0 -1 -1 0 1 2 1 0 1 1 0 0 0 nan
nan 0 -0 -1 -1 -1 -0 -0 -0 0 -1 -1 -1 -1 -1 -1 -1 -0 0 0 0 -0 1 2 1 1 1 1 -0 0 0 nan
nan -0 -0 -0 -0 0 -0 0 0 -0 -1 -0 -1 -1 -1 -1 -1 -1 0 1 1 1 1 1 1 1 1 0 0 0 0 nan
nan nan nan nan nan nan nan nan nan nan nan nan nan nan nan nan nan nan nan nan nan nan nan nan nan nan nan nan nan nan nan nan
Wind_Speed
40 30 28 28 29 29 31 31 30 35 41 40 37 36 34 33 32 31 29 27 25 23 24 24 25 27 28 28 28 27 26 24
35 30 32 31 32 35 35 34 33 36 45 45 45 41 36 35 34 32 30 28 26 25 23 25 27 29 30 28 27 27 25 24
28 22 22 22 22 27 32 33 32 35 40 42 49 45 42 38 35 32 29 30 28 28 26 27 28 29 30 29 28 27 28 27
13 8 9 10 15 17 18 22 32 34 39 44 50 46 43 38 34 33 32 32 31 30 28 28 29 29 32 30 30 30 27 29
14 10 10 12 10 7 12 21 28 34 40 41 45 49 47 41 40 38 39 35 34 32 30 30 29 29 30 31 31 31 29 30
21 16 13 14 12 12 9 15 23 28 29 35 39 42 43 42 43 40 41 36 35 35 33 31 30 31 30 30 28 28 30 31
21 17 15 15 13 13 11 8 12 17 23 29 33 37 39 40 37 42 41 36 35 36 35 33 31 30 31 29 29 28 30 32
25 24 22 20 17 13 9 7 5 7 20 25 32 35 36 35 40 47 40 33 36 37 39 37 35 31 30 29 30 32 32 33
25 26 27 24 21 17 13 7 3 5 9 20 30 36 38 38 38 41 41 36 33 38 40 39 36 32 31 30 30 32 32 33
27 33 31 27 25 22 18 14 11 10 10 16 21 30 36 41 40 42 42 39 36 36 38 37 38 34 32 33 31 31 29 29
32 37 36 31 26 23 19 16 15 12 11 11 21 25 31 42 44 43 43 42 40 34 33 37 37 34 33 32 30 26 29 28
34 40 40 36 31 27 23 20 16 11 10 9 13 22 28 34 41 44 42 43 41 34 31 32 33 33 34 32 30 27 26 27
36 40 40 40 39 35 31 24 22 18 15 11 7 9 17 21 30 29 39 41 39 34 31 29 30 30 33 32 30 27 27 28
42 40 41 42 41 41 39 31 25 23 20 13 9 3 8 15 23 25 27 32 34 33 33 30 29 29 30 31 28 27 25 27
39 40 41 38 38 41 40 39 31 26 24 20 15 10 6 8 17 22 27 28 30 32 32 32 29 27 26 26 27 29 26 25
33 33 34 36 38 36 35 37 39 34 30 26 22 18 8 8 7 14 17 23 27 30 31 31 28 23 23 25 27 26 26 27
26 29 31 33 33 33 33 34 36 39 39 35 30 24 16 11 7 9 15 19 25 31 26 31 30 27 26 25 26 27 26 25
25 28 28 28 29 32 32 32 32 34 36 39 37 34 30 23 14 7 9 14 22 29 29 32 31 28 26 25 26 27 23 26
26 23 24 24 24 24 28 29 30 31 33 34 35 36 35 32 28 25 18 12 4 15 28 33 29 27 24 23 23 25 28 26
Wind_Direction
244 237 234 235 233 238 240 238 234 237 238 234 231 230 227 227 224 226 223 223 226 228 230 229 226 227 230 232 233 234 238 238
253 249 249 245 243 243 241 237 238 232 234 235 232 231 232 229 228 228 227 228 229 231 230 228 227 229 229 230 236 238 238 242
254 251 249 250 246 244 240 234 236 233 229 234 237 234 231 233 232 230 228 233 234 233 234 231 227 226 226 228 231 238 241 241
255 296 271 254 241 237 228 225 228 238 235 232 232 233 230 232 235 240 233 235 236 234 236 234 229 229 225 226 226 234 243 242
132 150 109 113 114 161 200 209 215 226 229 229 233 234 229 229 234 235 237 232 234 234 236 237 233 231 229 230 232 235 235 243
93 98 83 89 89 104 135 184 201 214 215 227 233 237 241 235 231 233 237 234 232 232 234 234 233 231 232 232 234 237 239 243
67 71 68 70 73 87 102 132 191 204 207 213 229 238 237 241 241 243 238 236 236 233 234 233 233 233 232 233 233 236 240 244
42 47 53 51 50 60 69 88 126 188 214 216 218 230 237 239 233 238 249 243 243 243 238 232 233 234 234 234 235 236 241 246
29 30 41 41 40 41 37 13 322 238 230 229 226 226 231 231 234 235 246 253 257 252 242 238 238 239 236 232 235 240 244 249
28 33 37 35 36 35 30 16 3 336 272 251 241 237 231 234 232 236 242 248 255 254 248 244 242 239 236 230 235 241 245 244
31 37 36 36 34 36 36 24 11 348 318 277 248 245 240 240 237 238 242 246 250 249 246 245 246 240 232 229 233 245 247 240
34 40 41 38 36 33 33 26 15 357 336 323 271 242 238 239 241 242 244 245 248 245 239 243 244 237 233 228 233 242 250 237
42 43 43 41 39 37 35 31 23 11 4 1 331 284 237 246 251 251 246 249 249 246 237 237 240 234 231 227 231 239 245 236
48 42 41 40 38 37 35 32 30 22 13 7 3 306 244 230 237 249 249 247 248 244 238 232 234 232 226 227 231 238 241 239
40 37 39 37 37 39 36 34 33 33 25 17 15 3 353 254 242 245 255 248 244 247 242 239 230 225 227 222 229 236 238 237
32 32 35 34 35 33 33 34 34 35 39 30 23 17 356 358 271 248 242 258 254 251 240 229 223 222 223 224 230 235 236 238
24 31 34 34 33 30 31 33 34 35 39 42 36 29 14 7 293 265 247 242 241 249 233 224 211 214 216 223 230 230 232 236
29 31 31 32 32 33 31 32 35 36 37 40 43 44 39 28 10 341 240 227 217 218 207 217 212 214 221 223 229 228 228 234
29 29 30 29 29 29 32 33 34 36 38 36 37 43 47 47 45 40 23 10 27 167 185 195 209 219 224 225 224 230 226 229
Height
1425 1428 1429 1431 1432 1433 1435 1439 1443 1446 1449 1454 1456 1459 1463 1466 1468 1471 1474 1477 1479 1481 1483 1486 1489 1493 1495 1497 1499 1501 1504 1506
1420 1421 1422 1423 1425 1425 1426 1430 1436 1438 1441 1445 1449 1451 1457 1460 1464 1467 1470 1473 1475 1477 1479 1482 1484 1487 1490 1494 1497 1498 1500 1503
1410 1411 1413 1414 1413 1416 1419 1424 1428 1430 1432 1437 1440 1444 1448 1454 1458 1463 1467 1469 1471 1472 1474 1477 1479 1483 1486 1489 1492 1495 1496 1498
1400 1403 1404 1403 1405 1407 1410 1416 1421 1424 1428 1430 1433 1438 1442 1449 1454 1457 1460 1464 1466 1468 1470 1472 1474 1477 1480 1484 1487 1490 1491 1493
1397 1404 1407 1404 1405 1403 1404 1407 1412 1417 1422 1425 1429 1430 1433 1441 1446 1450 1453 1457 1461 1464 1465 1468 1470 1472 1475 1478 1481 1484 1487 1488
1398 1403 1407 1403 1404 1400 1400 1403 1406 1411 1416 1420 1425 1429 1433 1436 1440 1444 1446 1451 1453 1457 1460 1462 1464 1466 1469 1472 1476 1479 1482 1483
1404 1405 1405 1401 1401 1399 1401 1402 1404 1407 1412 1416 1420 1424 1427 1432 1438 1440 1440 1445 1449 1452 1454 1456 1458 1460 1463 1467 1470 1473 1476 1477
1407 1407 1404 1402 1400 1399 1399 1401 1404 1406 1408 1411 1415 1417 1422 1427 1429 1431 1422 1438 1443 1444 1447 1449 1451 1453 1457 1461 1465 1467 1470 1471
1412 1409 1403 1403 1401 1399 1397 1398 1401 1403 1406 1408 1409 1413 1415 1419 1424 1426 1428 1432 1436 1438 1440 1443 1445 1448 1451 1455 1458 1461 1463 1465
1417 1409 1405 1403 1401 1398 1398 1398 1400 1401 1402 1403 1405 1407 1408 1411 1416 1419 1422 1426 1429 1431 1434 1437 1439 1441 1445 1449 1451 1454 1456 1458
1419 1412 1409 1406 1404 1401 1399 1398 1398 1399 1399 1398 1399 1399 1401 1404 1407 1412 1415 1419 1422 1425 1428 1429 1431 1435 1438 1442 1445 1449 1451 1453
1422 1415 1413 1408 1405 1401 1398 1398 1398 1399 1398 1395 1394 1392 1393 1396 1398 1403 1408 1412 1416 1420 1422 1423 1424 1427 1431 1436 1439 1443 1446 1447
1427 1422 1420 1416 1414 1408 1402 1400 1400 1399 1396 1393 1391 1388 1388 1391 1392 1397 1401 1404 1408 1413 1417 1418 1418 1420 1424 1429 1434 1437 1440 1442
1425 1428 1424 1420 1417 1410 1405 1405 1403 1399 1395 1392 1389 1387 1386 1386 1389 1391 1394 1397 1401 1405 1408 1410 1411 1414 1418 1423 1428 1432 1435 1437
1431 1431 1426 1428 1425 1416 1416 1413 1407 1401 1397 1392 1388 1387 1385 1385 1386 1388 1390 1392 1395 1399 1401 1404 1406 1409 1413 1418 1423 1426 1429 1431
1441 1442 1439 1434 1425 1426 1424 1419 1413 1405 1397 1392 1389 1387 1384 1384 1384 1385 1386 1388 1391 1393 1394 1397 1400 1403 1409 1412 1417 1421 1424 1426
1454 1448 1442 1438 1437 1435 1430 1425 1419 1411 1402 1397 1394 1388 1386 1383 1384 1384 1384 1385 1386 1388 1389 1390 1393 1395 1400 1406 1412 1415 1418 1420
1458 1452 1449 1446 1444 1441 1436 1431 1425 1418 1413 1407 1399 1394 1391 1387 1385 1383 1383 1382 1382 1383 1381 1388 1391 1393 1396 1400 1405 1409 1412 1415
1460 1458 1454 1452 1449 1446 1442 1435 1429 1424 1419 1414 1410 1405 1399 1395 1391 1389 1386 1386 1383 1375 1375 1381 1387 1390 1395 1398 1400 1404 1406 1409